date,time,DOY,Ta_1_1_1,Pa_1_1_1,RH_1_1_1,LWin_1_1_1,LWout_1_1_1,SWin_1_1_1,SWout_1_1_1,PPFD_1_1_1,MWS_1_1_1,WD_1_1_1,SWC_1_1_1,Ts_1_1_1
[yyyy-mm-dd],[HH:MM],[ddd.ddd],[K],[Pa],[%],[W+1m-2],[W+1m-2],[W+1m-2],[W+1m-2],[µmol+1m-2s-1],[m+1s-1],[deg],[m+3m-3],[K]
2018-02-10,00:30,41.020,258.29500000000007,95156.899999999994,49.944333333333347,244.51899999999995,176.28000000000000,1.0400000000000000,-3.4156666666666662,-1.00000000000000002E-003,3.1800000000000002,194.99966666666666,0.25000000000000000,273.09266666666673
2018-02-10,01:00,41.041,257.87900000000002,95150.566666666666,49.789999999999999,242.87066666666664,175.69300000000001,1.0193333333333332,-3.1673333333333331,1.00000000000000002E-003,3.5733333333333337,205.40066666666669,0.25000000000000000,273.09400000000005
2018-02-10,01:30,41.062,257.47433333333328,95156.866666666669,50.310333333333325,240.99766666666667,174.89033333333336,1.0606666666666664,-3.1073333333333335,-1.00000000000000002E-003,3.6566666666666663,214.28833333333333,0.25000000000000000,273.09200000000004
2018-02-10,02:00,41.083,257.18466666666677,95176.666666666672,51.021666666666668,240.37533333333332,174.44933333333327,0.92333333333333334,-3.1786666666666665,0.0000000000000000,3.7633333333333341,218.70133333333337,0.25000000000000000,273.09066666666672
2018-02-10,02:30,41.104,256.67800000000005,95189.033333333340,52.096666666666671,238.77966666666671,172.51900000000006,0.89100000000000024,-3.2863333333333338,0.0000000000000000,3.5399999999999996,215.13333333333333,0.25000000000000000,273.09266666666667
2018-02-10,03:00,41.124,256.25000000000006,95192.766666666663,52.674666666666653,237.14899999999997,171.35166666666666,0.85833333333333317,-3.0969999999999995,1.00000000000000002E-003,4.2799999999999994,220.15566666666666,0.25000000000000000,273.09133333333347
2018-02-10,03:30,41.145,255.73566666666682,95175.000000000000,53.574666666666658,235.90466666666671,170.67800000000003,0.82533333333333336,-3.1066666666666669,1.00000000000000002E-003,3.9366666666666665,224.42233333333334,0.25000000000000000,273.08400000000000
2018-02-10,04:00,41.166,255.33800000000008,95143.000000000000,54.299999999999990,234.76833333333335,170.28000000000000,0.76999999999999980,-3.0409999999999999,0.0000000000000000,3.9566666666666666,224.16633333333331,0.25000000000000000,273.08966666666674
2018-02-10,04:30,41.187,255.04533333333339,95126.133333333331,55.088000000000001,234.19799999999995,173.87233333333333,0.83766666666666678,-2.6520000000000001,1.00000000000000002E-003,4.6100000000000003,220.63366666666667,0.25000000000000000,273.08900000000006
2018-02-10,05:00,41.208,255.34133333333330,95114.933333333334,54.707000000000001,234.74266666666659,174.88766666666666,0.75366666666666693,-2.5340000000000003,0.0000000000000000,5.1666666666666679,222.55566666666667,0.25000000000000000,273.08666666666670
2018-02-10,05:30,41.229,255.16900000000007,95116.199999999997,55.535666666666671,234.63866666666667,177.81466666666668,0.63166666666666660,-2.4236666666666671,2.00000000000000004E-003,5.0000000000000018,217.84566666666669,0.25000000000000000,273.09233333333333
2018-02-10,06:00,41.249,254.71866666666673,95129.566666666666,57.282666666666657,233.11866666666666,174.21899999999999,0.60899999999999999,-2.4833333333333338,5.33333333333333316E-003,5.1266666666666652,214.25500000000000,0.25000000000000000,273.09266666666673
2018-02-10,06:30,41.270,254.45566666666667,95121.766666666663,58.308333333333323,232.39300000000006,178.50766666666661,0.63699999999999990,-2.2693333333333339,1.00000000000000002E-003,5.0000000000000000,219.26700000000000,0.25000000000000000,273.08266666666663
2018-02-10,07:00,41.291,254.18433333333348,95132.233333333337,59.344999999999992,232.59300000000013,188.04666666666668,0.46633333333333327,-1.8723333333333334,6.33333333333333318E-003,4.6866666666666674,212.53233333333336,0.25000000000000000,273.08833333333337
2018-02-10,07:30,41.312,253.89099999999999,95107.899999999994,60.368333333333354,231.31000000000003,184.37000000000006,0.53233333333333333,-2.0379999999999998,2.00000000000000004E-003,3.9699999999999998,218.27866666666668,0.25000000000000000,273.08966666666669
2018-02-10,08:00,41.333,253.41633333333323,95094.966666666660,61.854000000000028,229.18133333333333,181.89133333333331,0.60066666666666657,-2.1393333333333331,3.66666666666666660E-003,3.4933333333333336,221.37733333333335,0.25000000000000000,273.09133333333335
2018-02-10,08:30,41.354,253.05699999999999,95068.566666666666,63.059333333333335,228.29766666666669,186.71133333333333,0.56966666666666665,-1.8673333333333333,-1.00000000000000002E-003,3.2199999999999998,211.58833333333331,0.25000000000000000,273.08666666666670
2018-02-10,09:00,41.374,252.67866666666686,95030.966666666660,64.478666666666655,226.79866666666663,182.10300000000001,0.51733333333333309,-1.9573333333333340,-4.00000000000000008E-003,3.5833333333333326,194.26733333333334,0.25000000000000000,273.09133333333341
2018-02-10,09:30,41.395,252.61000000000016,94987.899999999994,65.177999999999997,226.52766666666665,180.10966666666667,0.59733333333333316,-1.8013333333333330,-3.00000000000000006E-003,4.2266666666666683,198.40000000000001,0.25000000000000000,273.08766666666668
2018-02-10,10:00,41.416,252.35900000000004,94982.899999999994,66.049333333333337,225.17233333333337,175.24366666666668,0.57933333333333314,-2.1383333333333332,-3.00000000000000006E-003,3.7233333333333323,196.97766666666666,0.25000000000000000,273.09266666666667
2018-02-10,10:30,41.437,252.09566666666672,94984.100000000006,66.846666666666678,224.16866666666672,178.03233333333341,0.63866666666666672,-1.8843333333333336,-4.00000000000000008E-003,3.5166666666666671,196.74466666666666,0.25000000000000000,273.08500000000004
2018-02-10,11:00,41.458,252.20799999999994,94986.233333333337,66.246666666666670,224.32866666666666,179.00966666666670,0.67099999999999993,-1.7643333333333331,-6.00000000000000012E-003,3.8233333333333328,200.86599999999999,0.25000000000000000,273.09033333333338
2018-02-10,11:30,41.479,252.41866666666672,94953.100000000006,65.556666666666672,224.97933333333330,181.23000000000002,0.67299999999999982,-1.7649999999999999,7.00000000000000101E-003,3.7366666666666668,214.90033333333335,0.25000000000000000,273.08866666666665
2018-02-10,12:00,41.499,252.25333333333344,94948.133333333331,66.022666666666666,224.38066666666666,178.76966666666667,0.57433333333333336,-1.8770000000000000,2.00000000000000004E-003,3.7966666666666669,210.69933333333333,0.25000000000000000,273.08333333333337
2018-02-10,12:30,41.520,251.97100000000003,94949.466666666660,67.167333333333332,224.24733333333333,190.87399999999994,0.47666666666666657,-1.4476666666666667,-5.00000000000000010E-003,3.3966666666666661,216.38900000000001,0.25000000000000000,273.08266666666674
2018-02-10,13:00,41.541,251.86766666666662,94962.733333333337,67.777666666666647,225.33366666666660,196.51366666666664,0.40699999999999997,-0.96666666666666679,0.56499999999999995,3.9733333333333323,213.84466666666668,0.25000000000000000,273.08233333333339
2018-02-10,13:30,41.562,251.69233333333332,94990.566666666666,68.700333333333319,223.64833333333334,176.45333333333338,2.0910000000000006,6.0313333333333334,17.295999999999999,4.0866666666666669,210.44399999999999,0.25000000000000000,273.08633333333341
2018-02-10,14:00,41.583,251.33900000000011,95020.133333333331,70.115666666666655,221.99733333333333,168.07600000000002,5.4293333333333331,23.602000000000000,58.703999999999994,3.5500000000000003,204.19966666666667,0.25000000000000000,273.08233333333339
2018-02-10,14:30,41.604,251.31100000000004,95034.433333333334,70.376333333333335,223.22700000000000,168.72200000000001,21.052000000000000,109.47499999999999,188.11666666666670,3.3433333333333337,223.98833333333332,0.25000000000000000,273.08400000000006
2018-02-10,15:00,41.624,252.08666666666667,95034.833333333328,68.563333333333318,229.66199999999998,173.97499999999999,42.056666666666686,238.64899999999997,390.54599999999999,3.7633333333333332,226.33333333333334,0.25000000000000000,273.08033333333339
2018-02-10,15:30,41.645,253.02666666666661,95045.766666666663,66.166333333333327,235.13666666666668,179.21766666666670,52.819333333333333,312.68566666666669,535.75400000000013,3.4066666666666650,227.51033333333331,0.25000000000000000,273.08266666666674
2018-02-10,16:00,41.666,254.00466666666662,95061.433333333334,63.340000000000003,240.54833333333343,184.04266666666669,63.646333333333338,378.52199999999999,670.42466666666689,3.4033333333333342,210.14466666666667,0.25000000000000000,273.08533333333332
2018-02-10,16:30,41.687,255.20000000000010,95066.699999999997,59.153333333333315,246.60266666666672,188.58733333333336,73.169999999999987,434.63599999999991,789.23300000000006,2.8333333333333335,216.47666666666663,0.25000000000000000,273.08133333333342
2018-02-10,17:00,41.708,256.11700000000008,95060.800000000003,55.839999999999996,249.89033333333339,191.50733333333332,80.696333333333328,481.34033333333332,887.31166666666672,4.2366666666666664,217.61033333333336,0.25000000000000000,273.08166666666665
2018-02-10,17:30,41.729,257.48866666666675,95039.666666666672,51.042666666666669,256.04699999999997,195.23533333333324,85.774666666666675,513.89099999999985,962.03466666666679,3.3966666666666665,214.78866666666667,0.25000000000000000,273.07500000000005
2018-02-10,18:00,41.749,258.38233333333329,95001.000000000000,47.106666666666662,260.19033333333334,197.35699999999997,87.668333333333351,532.07466666666676,1006.2449999999998,3.1233333333333326,227.64500000000001,0.25000000000000000,273.07333333333338
2018-02-10,18:30,41.770,259.32166666666666,94961.766666666663,43.766999999999989,265.03600000000000,200.15366666666671,87.147333333333322,535.45066666666673,1022.9760000000003,2.3333333333333339,223.17733333333334,0.25000000000000000,273.07700000000006
2018-02-10,19:00,41.791,260.10399999999998,94932.899999999994,40.766333333333336,267.73099999999999,202.34066666666666,84.874333333333354,525.35333333333324,1010.6623333333335,2.8966666666666669,228.16700000000000,0.25000000000000000,273.07566666666673
2018-02-10,19:30,41.812,260.86666666666673,94901.100000000006,38.750666666666675,270.01333333333343,202.92899999999997,81.701666666666640,501.87333333333333,970.81999999999982,2.7200000000000002,228.99966666666666,0.25000000000000000,273.07766666666669
2018-02-10,20:00,41.833,261.80600000000010,94884.000000000000,37.039000000000001,272.88433333333330,203.95466666666664,73.377666666666684,463.87400000000008,900.67000000000007,2.6233333333333331,202.52233333333334,0.25000000000000000,273.07700000000000
2018-02-10,20:30,41.854,262.57333333333338,94859.666666666672,36.059000000000005,274.10299999999995,203.92800000000005,61.458999999999996,414.58566666666667,804.03533333333326,2.9033333333333338,230.55466666666663,0.25000000000000000,273.07433333333330
2018-02-10,21:00,41.874,263.00166666666672,94864.166666666672,35.541666666666664,273.90700000000004,202.84666666666666,51.140000000000001,354.27833333333336,684.45700000000022,3.2933333333333348,212.95566666666667,0.25000000000000000,273.07466666666670
2018-02-10,21:30,41.895,263.47000000000008,94857.399999999994,34.054333333333332,273.96233333333333,201.24900000000005,41.040666666666660,283.32966666666664,544.60733333333349,2.7599999999999998,209.24433333333334,0.25000000000000000,273.07466666666664
2018-02-10,22:00,41.916,263.66099999999994,94833.766666666663,33.808666666666667,272.72199999999998,199.00466666666668,30.998666666666669,206.09466666666671,391.70966666666664,2.8433333333333342,213.35633333333334,0.25000000000000000,273.07033333333334
2018-02-10,22:30,41.937,263.71333333333331,94824.666666666672,33.839666666666659,270.75700000000001,196.66033333333331,21.593333333333341,126.89266666666667,238.43233333333333,2.6499999999999999,202.98866666666666,0.25000000000000000,273.07033333333328
2018-02-10,23:00,41.958,263.54866666666669,94838.433333333334,34.416666666666664,267.58199999999999,195.58399999999997,11.599333333333334,53.408666666666676,100.66600000000000,2.8500000000000001,191.62166666666664,0.25000000000000000,273.07133333333331
2018-02-10,23:30,41.979,262.90366666666671,94830.566666666666,35.667999999999992,262.70166666666660,194.14866666666666,2.9440000000000000,4.8063333333333329,16.317333333333334,2.9500000000000002,188.75633333333334,0.25000000000000000,273.06933333333330
2018-02-11,00:00,42.000,262.32700000000000,94824.333333333328,36.564666666666668,259.17433333333332,192.90799999999996,0.96766666666666634,-3.5339999999999998,0.30899999999999989,3.2133333333333329,181.07766666666666,0.25000000000000000,273.06999999999999
